This demonstration page uses our WeatherBlox Daily Observations layout. Learn more.

Left ArrowRight Arrow

Hourly Observations for September 26, 2018

Temp ( °F °C ) Dew Point ( °F °C ) Humidity (%) Winds ( mph kmh ) Pressure ( in mb ) Visibility ( mi km ) Precip ( " mm )
12:53 am 00:53 Clear 75 23.9 63 17.2 66 66 ENE 12 19 29.89 1012 10 16 0.00 0.00
1:39 am 01:39 Mostly Cloudy 76 24.4 62 16.7 62 62 ENE 14 22 29.88 1012 10 16 0.00 0.00
1:53 am 01:53 Cloudy 75 23.9 62 16.7 64 64 NE 10 17 29.90 1013 10 16 0.00 0.00
2:10 am 02:10 Cloudy 74 23.3 63 17.2 69 69 ENE 9 15 29.88 1012 10 16 0.00 0.00
2:53 am 02:53 Partly Cloudy 73 22.8 63 17.2 71 71 NE 17 28 29.91 1013 10 16 0.00 0.00
3:18 am 03:18 Cloudy 72 22.2 61 16.1 68 68 NNE 17 28 29.97 1015 10 16 0.00 0.00
3:53 am 03:53 Cloudy 71 21.7 58 14.4 63 63 NNE 24 39 29.95 1014 10 16 0.00 0.00
4:51 am 04:51 Cloudy 68 20 54 12 60 60 NNE 24 39 30.03 1017 10 16 0.00 0.00
4:53 am 04:53 Cloudy 68 20 54 12.2 61 61 NNE 23 37 29.97 1015 10 16 0.00 0.00
5:53 am 05:53 Mostly Cloudy 62 16.7 52 11.1 70 70 NNE 24 39 30.02 1017 10 16 0.00 0.00
6:53 am 06:53 Cloudy 63 17.2 53 11.7 70 70 NNE 17 28 30.04 1017 10 16 0.00 0.00
7:53 am 07:53 Cloudy 63 17.2 54 12.2 73 73 NE 18 30 30.06 1018 10 16 0.00 0.00
8:53 am 08:53 Cloudy 64 17.8 55 12.8 73 73 NE 18 30 30.06 1018 10 16 0.00 0.00
9:40 am 09:40 Cloudy with Rain 63 17.2 57 13.9 81 81 NNE 10 17 30.15 1021 9 14 0.00 0.03
9:53 am 09:53 Cloudy with Light Rain 62 16.7 58 14.4 86 86 NNE 14 22 30.14 1021 7 11 0.01 0.25
10:53 am 10:53 Cloudy 63 17.2 59 15 87 87 NNE 8 13 30.16 1021 10 16 0.01 0.25
11:53 am 11:53 Cloudy 62 16.7 58 14.4 86 86 N 9 15 30.17 1022 10 16 0.00 0.00
12:15 pm 12:15 Cloudy 63 17.2 57 13.9 81 81 ENE 13 20 30.18 1022 10 16 0.00 0.00
12:53 pm 12:53 Cloudy 62 16.7 56 13.3 80 80 NNE 13 20 30.17 1022 10 16 0.00 0.00
1:53 pm 13:53 Cloudy 61 16.1 55 12.8 81 81 NE 13 20 30.17 1022 10 16 0.00 0.00
2:19 pm 14:19 Cloudy 61 16.1 54 12.2 78 78 ENE 8 13 30.18 1022 10 16 0.00 0.00
2:53 pm 14:53 Cloudy 62 16.7 54 12.2 75 75 NNE 8 13 30.14 1021 10 16 0.00 0.00
3:09 pm 15:09 Cloudy with Nearby Thunderstorms 60 15.6 56 13.3 86 86 NE 9 15 30.15 1021 9 14 0.00 0.03
3:14 pm 15:14 Cloudy with Nearby Thunderstorms 58 14.4 57 13.9 97 97 NNE 9 15 30.18 1022 2 3 0.13 3.30
3:19 pm 15:19 Cloudy with Heavy Rain 58 14.4 57 13.9 97 97 NNE 13 20 30.18 1022 1 2 0.17 4.32
3:32 pm 15:32 Cloudy with Light Rain 58 14.4 57 13.9 97 97 NNE 10 17 30.18 1022 3 4 0.24 6.10
3:40 pm 15:40 Cloudy with Light Rain 58 14.4 57 13.9 97 97 NNE 15 24 30.18 1022 8 13 0.24 6.10
3:53 pm 15:53 Cloudy 59 15 56 13.3 90 90 NNE 15 24 30.15 1021 10 16 0.24 6.10
4:18 pm 16:18 Cloudy 59 15 56 13.3 90 90 NNE 13 20 30.18 1022 10 16 0.00 0.00
4:25 pm 16:25 Cloudy 58 14.4 55 12.8 90 90 NNE 12 19 30.18 1022 10 16 0.00 0.00
4:41 pm 16:41 Cloudy 58 14.4 55 12.8 90 90 N 12 19 30.18 1022 10 16 0.00 0.00
4:53 pm 16:53 Cloudy with Thunderstorms 58 14.4 55 12.8 90 90 NE 13 20 30.13 1020 8 13 0.01 0.25
5:18 pm 17:18 Cloudy with Nearby Thunderstorms 57 13.9 55 12.8 93 93 NNE 13 20 30.15 1021 10 16 0.02 0.51
5:25 pm 17:25 Cloudy 57 13.9 55 12.8 93 93 NNE 10 17 30.18 1022 10 16 0.02 0.51
5:38 pm 17:38 Cloudy 57 13.9 54 12.2 90 90 NE 13 20 30.15 1021 10 16 0.02 0.51
5:51 pm 17:51 Cloudy 57 13.9 54 12.2 90 90 NNE 10 17 30.14 1021 10 16 0.02 0.51
6:10 pm 18:10 Cloudy 58 14.4 54 12.2 87 87 NE 10 17 30.15 1021 10 16 0.00 0.00
6:24 pm 18:24 Cloudy 57 13.9 54 12.2 90 90 NE 10 17 30.15 1021 10 16 0.00 0.00
6:53 pm 18:53 Cloudy 57 13.9 53 11.7 87 87 ENE 8 13 30.12 1020 10 16 0.00 0.00
7:02 pm 19:02 Cloudy 57 13.9 53 11.7 87 87 NE 8 13 30.15 1021 10 16 0.00 0.00
7:53 pm 19:53 Partly Cloudy 56 13.3 55 12.8 97 97 E 3 6 30.11 1020 10 16 0.00 0.00
8:53 pm 20:53 Mostly Clear 56 13.3 54 12.2 93 93 ENE 6 9 30.11 1020 10 16 0.00 0.00
9:07 pm 21:07 Mostly Cloudy 56 13.3 54 12.2 93 93 NE 7 11 30.15 1021 10 16 0.00 0.00
9:53 pm 21:53 Cloudy 57 13.9 53 11.7 87 87 NNE 5 7 30.13 1020 10 16 0.00 0.00
10:53 pm 22:53 Cloudy 57 13.9 53 11.7 87 87 E 5 7 30.15 1021 10 16 0.00 0.00
11:10 pm 23:10 Cloudy 57 13.9 53 11.7 87 87 ESE 3 6 30.15 1021 10 16 0.00 0.00
11:31 pm 23:31 Cloudy 57 13.9 54 12.2 90 90 E 7 11 30.15 1021 10 16 0.00 0.00
11:53 pm 23:53 Cloudy 57 13.9 53 11.7 87 87 E 7 11 30.14 1021 10 16 0.00 0.00

Powered by AerisWeather